Time,TemperatureF,DewpointF,PressureIn,WindDirection,WindDirectionDegrees,WindSpeedMPH,WindSpeedGustMPH,Humidity,HourlyPrecipIn,Conditions,Clouds,dailyrainin,SoftwareType,DateUTC
2013-10-21 00:13:00,33.0,26.0,29.97,North,360,6.0,-999.0,74,-99.99,,,-99.99,,2013-10-21 05:13:00,
2013-10-21 00:23:00,32.0,24.0,29.97,North,360,7.0,-999.0,71,-99.99,,,-99.99,,2013-10-21 05:23:00,
2013-10-21 00:43:00,32.0,24.0,29.97,NW,313,4.0,-999.0,73,-99.99,,,-99.99,,2013-10-21 05:43:00,
2013-10-21 00:52:00,32.0,24.0,29.97,NNW,338,4.0,-999.0,72,-99.99,,,-99.99,,2013-10-21 05:52:00,
2013-10-21 01:12:00,31.0,23.0,29.97,North,360,4.0,-999.0,72,-99.99,,,-99.99,,2013-10-21 06:12:00,
2013-10-21 01:22:00,31.0,24.0,29.98,WNW,297,3.0,-999.0,75,-99.99,,,-99.99,,2013-10-21 06:22:00,
2013-10-21 01:42:00,31.0,24.0,29.98,North,360,4.0,-999.0,76,-99.99,,,-99.99,,2013-10-21 06:42:00,
2013-10-21 01:52:00,31.0,25.0,29.98,North,360,4.0,-999.0,78,-99.99,,,-99.99,,2013-10-21 06:52:00,
2013-10-21 02:12:00,31.0,24.0,29.98,NW,310,5.0,-999.0,76,-99.99,,,-99.99,,2013-10-21 07:12:00,
2013-10-21 02:22:00,31.0,25.0,29.98,North,360,4.0,-999.0,78,-99.99,,,-99.99,,2013-10-21 07:22:00,
2013-10-21 02:42:00,31.0,25.0,29.98,North,360,3.0,-999.0,79,-99.99,,,-99.99,,2013-10-21 07:42:00,
2013-10-21 02:52:00,31.0,25.0,29.98,WNW,297,5.0,-999.0,78,-99.99,,,-99.99,,2013-10-21 07:52:00,
2013-10-21 03:12:00,31.0,25.0,29.99,North,360,5.0,-999.0,77,-99.99,,,-99.99,,2013-10-21 08:12:00,
2013-10-21 03:21:00,31.0,25.0,29.99,North,360,5.0,-999.0,77,-99.99,,,-99.99,,2013-10-21 08:21:00,
2013-10-21 03:42:00,31.0,25.0,29.99,WNW,298,6.0,-999.0,77,-99.99,,,-99.99,,2013-10-21 08:42:00,
2013-10-21 03:52:00,31.0,25.0,29.99,WNW,298,6.0,-999.0,77,-99.99,,,-99.99,,2013-10-21 08:52:00,
2013-10-21 04:22:00,31.0,25.0,29.99,North,360,4.0,-999.0,78,-99.99,,,-99.99,,2013-10-21 09:22:00,
2013-10-21 04:43:00,31.0,25.0,29.99,West,261,3.0,-999.0,78,-99.99,,,-99.99,,2013-10-21 09:43:00,
2013-10-21 04:53:00,31.0,25.0,29.99,North,360,4.0,-999.0,79,-99.99,,,-99.99,,2013-10-21 09:53:00,
2013-10-21 05:13:00,31.0,25.0,29.98,North,360,5.0,-999.0,77,-99.99,,,-99.99,,2013-10-21 10:13:00,
2013-10-21 05:23:00,31.0,24.0,29.98,NW,310,5.0,-999.0,76,-99.99,,,-99.99,,2013-10-21 10:23:00,
2013-10-21 05:43:00,31.0,25.0,29.98,North,360,5.0,-999.0,77,-99.99,,,-99.99,,2013-10-21 10:43:00,
2013-10-21 05:52:00,31.0,24.0,29.99,North,360,7.0,-999.0,76,-99.99,,,-99.99,,2013-10-21 10:52:00,
2013-10-21 06:12:00,31.0,25.0,29.99,NW,322,6.0,-999.0,78,-99.99,,,-99.99,,2013-10-21 11:12:00,
2013-10-21 06:22:00,31.0,24.0,29.98,North,360,4.0,-999.0,76,-99.99,,,-99.99,,2013-10-21 11:22:00,
2013-10-21 06:42:00,31.0,23.0,29.98,NW,314,5.0,-999.0,72,-99.99,,,-99.99,,2013-10-21 11:42:00,
2013-10-21 06:52:00,31.0,23.0,29.98,North,360,5.0,-999.0,72,-99.99,,,-99.99,,2013-10-21 11:52:00,
2013-10-21 07:12:00,30.0,23.0,29.99,North,360,3.0,-999.0,76,-99.99,,,-99.99,,2013-10-21 12:12:00,
2013-10-21 07:22:00,30.0,24.0,29.99,WNW,297,4.0,-999.0,79,-99.99,,,-99.99,,2013-10-21 12:22:00,
2013-10-21 07:42:00,30.0,25.0,29.99,West,267,4.0,-999.0,81,-99.99,,,-99.99,,2013-10-21 12:42:00,
2013-10-21 07:52:00,30.0,25.0,29.98,WNW,300,4.0,-999.0,82,-99.99,,,-99.99,,2013-10-21 12:52:00,
2013-10-21 08:11:00,30.0,25.0,29.99,NW,318,5.0,-999.0,80,-99.99,,,-99.99,,2013-10-21 13:11:00,
2013-10-21 08:22:00,30.0,25.0,29.99,North,360,6.0,-999.0,80,-99.99,,,-99.99,,2013-10-21 13:22:00,
2013-10-21 08:42:00,30.0,24.0,29.99,North,360,6.0,-999.0,78,-99.99,,,-99.99,,2013-10-21 13:42:00,
2013-10-21 08:52:00,30.0,22.0,29.99,NW,314,7.0,-999.0,72,-99.99,,,-99.99,,2013-10-21 13:52:00,
2013-10-21 09:12:00,30.0,22.0,30.00,North,360,5.0,-999.0,71,-99.99,,,-99.99,,2013-10-21 14:12:00,
2013-10-21 09:22:00,31.0,22.0,30.00,North,360,6.0,-999.0,69,-99.99,,,-99.99,,2013-10-21 14:22:00,
2013-10-21 09:42:00,31.0,22.0,30.00,North,360,5.0,-999.0,69,-99.99,,,-99.99,,2013-10-21 14:42:00,
2013-10-21 09:52:00,31.0,23.0,30.00,North,360,6.0,-999.0,72,-99.99,,,-99.99,,2013-10-21 14:52:00,
2013-10-21 10:21:00,31.0,24.0,30.00,WNW,288,4.0,-999.0,74,-99.99,,,-99.99,,2013-10-21 15:21:00,
2013-10-21 10:43:00,31.0,22.0,30.00,West,271,7.0,-999.0,69,-99.99,,,-99.99,,2013-10-21 15:43:00,
2013-10-21 10:53:00,32.0,22.0,30.00,NW,317,6.0,-999.0,67,-99.99,,,-99.99,,2013-10-21 15:53:00,
2013-10-21 11:13:00,32.0,22.0,30.00,NW,315,8.0,-999.0,66,-99.99,,,-99.99,,2013-10-21 16:13:00,
2013-10-21 11:23:00,32.0,23.0,30.00,NW,321,5.0,-999.0,70,-99.99,,,-99.99,,2013-10-21 16:23:00,
2013-10-21 11:43:00,32.0,23.0,30.00,NW,315,4.0,-999.0,70,-99.99,,,-99.99,,2013-10-21 16:43:00,
2013-10-21 11:53:00,32.0,22.0,30.00,North,360,8.0,-999.0,66,-99.99,,,-99.99,,2013-10-21 16:53:00,
2013-10-21 12:12:00,33.0,23.0,30.00,North,360,6.0,-999.0,65,-99.99,,,-99.99,,2013-10-21 17:12:00,
2013-10-21 12:22:00,33.0,22.0,30.00,NW,318,8.0,-999.0,64,-99.99,,,-99.99,,2013-10-21 17:22:00,
2013-10-21 12:34:00,33.0,22.0,30.00,NW,318,8.0,-999.0,64,-99.99,,,-99.99,,2013-10-21 17:34:00,
2013-10-21 12:43:00,33.0,22.0,30.00,NW,318,8.0,-999.0,64,-99.99,,,-99.99,,2013-10-21 17:43:00,
2013-10-21 12:53:00,33.0,23.0,29.99,WNW,298,9.0,-999.0,66,-99.99,,,-99.99,,2013-10-21 17:53:00,
2013-10-21 13:12:00,33.0,23.0,29.99,WNW,303,7.0,-999.0,67,-99.99,,,-99.99,,2013-10-21 18:12:00,
2013-10-21 13:22:00,34.0,24.0,29.99,NW,310,5.0,-999.0,66,-99.99,,,-99.99,,2013-10-21 18:22:00,
2013-10-21 13:42:00,34.0,23.0,29.99,North,360,8.0,-999.0,65,-99.99,,,-99.99,,2013-10-21 18:42:00,
2013-10-21 13:52:00,35.0,23.0,29.98,NW,319,9.0,-999.0,62,-99.99,,,-99.99,,2013-10-21 18:52:00,
2013-10-21 14:11:00,35.0,24.0,29.98,North,360,7.0,-999.0,64,-99.99,,,-99.99,,2013-10-21 19:11:00,
2013-10-21 14:22:00,35.0,24.0,29.98,NW,310,9.0,-999.0,63,-99.99,,,-99.99,,2013-10-21 19:22:00,
2013-10-21 14:42:00,36.0,24.0,29.97,North,360,8.0,-999.0,61,-99.99,,,-99.99,,2013-10-21 19:42:00,
2013-10-21 14:52:00,36.0,23.0,29.97,NW,309,6.0,-999.0,59,-99.99,,,-99.99,,2013-10-21 19:52:00,
2013-10-21 15:11:00,38.0,25.0,29.96,NW,319,8.0,-999.0,59,-99.99,,,-99.99,,2013-10-21 20:11:00,
2013-10-21 15:22:00,36.0,24.0,29.97,NNW,340,6.0,-999.0,61,-99.99,,,-99.99,,2013-10-21 20:22:00,
2013-10-21 15:52:00,36.0,23.0,29.97,North,360,8.0,-999.0,60,-99.99,,,-99.99,,2013-10-21 20:52:00,
2013-10-21 16:22:00,38.0,25.0,29.97,North,349,9.0,-999.0,58,-99.99,,,-99.99,,2013-10-21 21:22:00,
2013-10-21 16:34:00,38.0,25.0,29.97,North,349,9.0,-999.0,58,-99.99,,,-99.99,,2013-10-21 21:34:00,
2013-10-21 16:54:00,38.0,25.0,29.97,NW,313,7.0,-999.0,59,-99.99,,,-99.99,,2013-10-21 21:54:00,
2013-10-21 17:24:00,38.0,25.0,29.97,NW,321,5.0,-999.0,58,-99.99,,,-99.99,,2013-10-21 22:24:00,
2013-10-21 17:44:00,38.0,25.0,29.97,NNW,334,6.0,-999.0,59,-99.99,,,-99.99,,2013-10-21 22:44:00,
2013-10-21 17:53:00,38.0,25.0,29.97,NNW,337,2.0,-999.0,59,-99.99,,,-99.99,,2013-10-21 22:53:00,
2013-10-21 18:22:00,37.0,25.0,29.98,NNW,327,1.0,-999.0,62,-99.99,,,-99.99,,2013-10-21 23:22:00,
2013-10-21 18:42:00,36.0,25.0,29.98,NNW,327,1.0,-999.0,65,-99.99,,,-99.99,,2013-10-21 23:42:00,
2013-10-21 18:53:00,36.0,25.0,29.98,NNW,327,1.0,-999.0,65,-99.99,,,-99.99,,2013-10-21 23:53:00,
2013-10-21 19:12:00,34.0,25.0,29.98,NNW,327,1.0,-999.0,68,-99.99,,,-99.99,,2013-10-22 00:12:00,
2013-10-21 19:22:00,33.0,24.0,29.98,NNW,328,1.0,-999.0,70,-99.99,,,-99.99,,2013-10-22 00:22:00,
2013-10-21 19:53:00,32.0,24.0,29.98,NNW,327,0.0,-999.0,72,-99.99,,,-99.99,,2013-10-22 00:53:00,
2013-10-21 20:12:00,32.0,24.0,29.98,NNW,327,0.0,-999.0,73,-99.99,,,-99.99,,2013-10-22 01:12:00,
2013-10-21 20:22:00,32.0,24.0,29.98,NNW,327,0.0,-999.0,73,-99.99,,,-99.99,,2013-10-22 01:22:00,
2013-10-21 20:42:00,31.0,24.0,29.98,NNW,328,0.0,-999.0,74,-99.99,,,-99.99,,2013-10-22 01:42:00,
2013-10-21 20:52:00,31.0,24.0,29.98,NNW,328,1.0,-999.0,74,-99.99,,,-99.99,,2013-10-22 01:52:00,
2013-10-21 21:11:00,31.0,24.0,29.98,NNW,327,0.0,-999.0,75,-99.99,,,-99.99,,2013-10-22 02:11:00,
2013-10-21 21:22:00,30.0,23.0,29.98,NNW,328,0.0,-999.0,76,-99.99,,,-99.99,,2013-10-22 02:22:00,
2013-10-21 21:43:00,30.0,23.0,29.98,NNW,328,0.0,-999.0,76,-99.99,,,-99.99,,2013-10-22 02:43:00,
2013-10-21 21:52:00,30.0,24.0,29.98,NNW,328,0.0,-999.0,78,-99.99,,,-99.99,,2013-10-22 02:52:00,
2013-10-21 22:22:00,29.0,23.0,29.98,NNW,328,0.0,-999.0,78,-99.99,,,-99.99,,2013-10-22 03:22:00,
2013-10-21 22:45:00,29.0,23.0,29.98,NNW,328,0.0,-999.0,78,-99.99,,,-99.99,,2013-10-22 03:45:00,
2013-10-21 22:55:00,29.0,23.0,29.99,NNW,328,0.0,-999.0,78,-99.99,,,-99.99,,2013-10-22 03:55:00,
2013-10-21 23:13:00,29.0,23.0,29.98,NNW,328,0.0,-999.0,79,-99.99,,,-99.99,,2013-10-22 04:13:00,
2013-10-21 23:24:00,29.0,24.0,29.98,NNW,327,0.0,-999.0,80,-99.99,,,-99.99,,2013-10-22 04:24:00,
2013-10-21 23:54:00,29.0,24.0,29.99,NNW,328,0.0,-999.0,81,-99.99,,,-99.99,,2013-10-22 04:54:00,